Regional Weather Roundup
Issued by NWS

Home | Current Version | Previous Version | Graphics & Text | Print | Product List | Glossary On
Versions: 1 2 3 4 5 6 7 8 9 10 11 12 13 14 15 16 17 18 19 20 21 22 23 24 25 26 27 28 29 30 31 32 33 34 35 36 37 38 39 40 41 42 43 44 45 46 47 48 49 50
000
ASUS43 KFSD 252102
RWRSD

WEATHER ROUNDUP FOR SOUTH DAKOTA
NATIONAL WEATHER SERVICE SIOUX FALLS SD
400 PM CDT TUE APR 25 2017

NOTE: "FAIR" INDICATES FEW OR NO CLOUDS BELOW 12,000 FEET WITH NO
SIGNIFICANT WEATHER AND/OR OBSTRUCTIONS TO VISIBILITY.


SDZ001>005-009-010-012>017-252200-
NORTHWEST AND NORTH CENTRAL SOUTH DAKOTA

CITY           SKY/WX    TMP DP  RH WIND       PRES   REMARKS
BUFFALO          N/A     29  26  89 N16G24    29.79R WCI  17
FAITH            N/A     28  27  96 N21       29.83R WCI  15
MOBRIDGE       CLOUDY    35  25  66 N20G26    29.81R WCI  24
$$

SDZ012>016-024>037-041>051-057-063-072>074-252200-
SOUTHWEST AND SOUTH CENTRAL SOUTH DAKOTA

CITY           SKY/WX    TMP DP  RH WIND       PRES   REMARKS
RAPID CTY ARPT LGT SNOW  29  26  89 N18       29.81R VSB 3/4 WCI  16
PIERRE         CLOUDY    35  28  75 N21G28    29.77S WCI  24
CUSTER         CLOUDY    28  22  78 NE9       29.68R WCI  19
ELLSWORTH AFB  LGT SNOW  30  30 100 N18       29.81  FOG     WCI  18
PHILIP         LGT SNOW  32  31  96 N18       29.81R FOG     WCI  20
PINE RIDGE     CLOUDY    36  30  79 N17       29.74R
SPEARFISH      LGT SNOW  27  25  93 N12       29.83R WCI  16
WINNER         LGT RAIN  37  33  85 N15       29.73R
$$

SDZ004>011-016>023-039-040-252200-
NORTHEAST SOUTH DAKOTA

CITY           SKY/WX    TMP DP  RH WIND       PRES   REMARKS
ABERDEEN       CLOUDY    36  27  69 N22G31    29.75F
WATERTOWN      CLOUDY    35  31  85 N20       29.65R WCI  24
BROOKINGS      LGT RAIN  37  34  89 N14G23    29.64R
SISSETON         N/A     37  33  85 N26G32    29.70R
$$

SDZ017-020-022-023-036>040-048>070-252200-
SOUTHEAST SOUTH DAKOTA

CITY           SKY/WX    TMP DP  RH WIND       PRES   REMARKS
SIOUX FALLS    LGT RAIN  42  42 100 N13       29.61S
HURON          CLOUDY    37  32  82 N21G28    29.72R
CHAMBERLAIN    CLOUDY    40  34  77 NW17G23   29.72S
MITCHELL       CLOUDY    40  33  76 N25       29.68F
YANKTON        CLOUDY    43  37  81 NW16G23   29.62S
$$

ABBREVIATIONS USED IN REMARKS
   TC - TEMPERATURE IN CELSIUS
  WCI - WIND CHILL INDEX
   HX - HEAT INDEX
  VSB - VISIBILITY





USA.gov is the U.S. government's official web portal to all federal, state and local government web resources and services.